Location: Newark
(0.5300°S, 127.4800°E)
Time: 14:07:18
(UTC+00:00)

A-11 Canister half - Pass Details

Date: 23 September 2019
Orbit: 1514 x 1686 km, 47.2° (Epoch: 21 October)

Event Time Altitude Azimuth Distance (km) Brightness Sun altitude
Rises 21:21:13 0° 219° (SW) 4,888 11.3 -0.3°
Reaches altitude 10° 21:24:23 10° 218° (SW) 3,880 10.8 0.5°
Maximum altitude 21:34:19 86° 130° (SE) 1,603 9.3 3.0°
Drops below altitude 10° 21:43:50 10° 41° (NE) 3,733 11.7 5.4°
Sets 21:46:50 0° 41° (NE) 4,696 12.2 6.1°
